TimeCDT,TemperatureF,Dew PointF,Humidity,Sea Level PressureIn,VisibilityMPH,Wind Direction,Wind SpeedMPH,Gust SpeedMPH,PrecipitationIn,Events,Conditions,WindDirDegrees,DateUTC
12:53 AM,71.1,61.0,70,29.74,10.0,South,17.3,23.0,N/A,,Clear,180,2012-10-25 05:53:00
1:53 AM,70.0,61.0,73,29.75,10.0,South,15.0,23.0,N/A,,Clear,190,2012-10-25 06:53:00
2:53 AM,70.0,61.0,73,29.75,10.0,South,19.6,27.6,N/A,,Clear,180,2012-10-25 07:53:00
3:53 AM,69.1,62.1,78,29.74,10.0,South,20.7,29.9,N/A,,Clear,190,2012-10-25 08:53:00
4:53 AM,69.1,62.1,78,29.73,10.0,South,20.7,29.9,N/A,,Clear,190,2012-10-25 09:53:00
5:53 AM,69.1,62.1,78,29.73,10.0,South,19.6,27.6,N/A,,Clear,190,2012-10-25 10:53:00
6:53 AM,69.1,63.0,81,29.71,10.0,South,24.2,32.2,N/A,,Clear,180,2012-10-25 11:53:00
7:53 AM,69.8,62.6,78,29.78,10.0,SSW,17.3,28.8,N/A,,Scattered Clouds,200,2012-10-25 12:53:00
8:53 AM,71.1,63.0,75,29.78,10.0,SSW,19.6,-,N/A,,Overcast,200,2012-10-25 13:53:00
9:53 AM,71.1,62.1,73,29.80,10.0,SW,20.7,28.8,N/A,,Overcast,220,2012-10-25 14:53:00
10:09 AM,71.6,62.6,73,29.83,10.0,SSW,19.6,29.9,N/A,,Overcast,210,2012-10-25 15:09:00
10:24 AM,71.6,62.6,73,29.82,10.0,SSW,19.6,29.9,N/A,,Overcast,200,2012-10-25 15:24:00
10:53 AM,66.0,59.0,78,29.84,10.0,WNW,23.0,33.4,0.00,Rain,Light Rain,300,2012-10-25 15:53:00
11:01 AM,57.2,53.6,88,29.87,6.0,WNW,20.7,34.5,0.00,Rain,Light Rain,300,2012-10-25 16:01:00
11:11 AM,55.4,53.6,94,29.89,7.0,NW,19.6,26.5,0.01,Rain,Light Rain,320,2012-10-25 16:11:00
11:19 AM,51.8,51.8,100,29.90,5.0,NW,19.6,28.8,0.01,Rain,Light Rain,320,2012-10-25 16:19:00
11:53 AM,48.0,46.0,93,29.93,5.0,NW,18.4,28.8,0.02,Rain,Light Rain,320,2012-10-25 16:53:00
12:06 PM,48.2,46.4,93,29.95,3.0,NW,19.6,-,0.02,Rain,Light Rain,320,2012-10-25 17:06:00
12:51 PM,46.4,44.6,93,29.98,10.0,NW,12.7,-,0.04,Rain,Light Rain,310,2012-10-25 17:51:00
12:53 PM,46.9,45.0,93,29.97,10.0,NNW,15.0,-,0.04,Rain,Light Rain,330,2012-10-25 17:53:00
1:16 PM,46.4,44.6,93,29.99,9.0,NNW,11.5,20.7,0.01,Rain,Light Rain,330,2012-10-25 18:16:00
1:28 PM,46.4,44.6,93,30.00,7.0,NNW,12.7,-,0.01,Rain,Light Rain,340,2012-10-25 18:28:00
1:53 PM,46.0,44.1,93,30.00,8.0,NNW,11.5,23.0,0.01,Rain,Light Rain,330,2012-10-25 18:53:00
2:04 PM,44.6,42.8,93,30.01,8.0,NW,17.3,23.0,0.00,Rain,Light Rain,320,2012-10-25 19:04:00
2:53 PM,46.0,42.1,86,30.03,10.0,NNW,15.0,21.9,0.00,,Overcast,330,2012-10-25 19:53:00
3:53 PM,45.0,41.0,86,30.06,10.0,NNW,15.0,23.0,N/A,,Overcast,330,2012-10-25 20:53:00
4:53 PM,45.0,39.0,80,30.09,10.0,NNW,16.1,23.0,N/A,,Overcast,340,2012-10-25 21:53:00
5:53 PM,45.0,37.9,76,30.11,10.0,North,10.4,20.7,N/A,,Overcast,10,2012-10-25 22:53:00
6:53 PM,45.0,39.0,80,30.14,10.0,North,8.1,-,N/A,,Overcast,360,2012-10-25 23:53:00
7:53 PM,45.0,37.9,76,30.17,10.0,North,15.0,24.2,N/A,,Overcast,360,2012-10-26 00:53:00
8:53 PM,45.0,37.0,74,30.18,10.0,NNE,8.1,-,N/A,,Overcast,20,2012-10-26 01:53:00
9:26 PM,44.6,37.4,76,30.21,10.0,North,9.2,17.3,N/A,,Overcast,10,2012-10-26 02:26:00
9:53 PM,45.0,37.0,74,30.20,10.0,North,10.4,-,N/A,,Overcast,10,2012-10-26 02:53:00
10:29 PM,44.6,37.4,76,30.22,10.0,North,8.1,-,N/A,,Overcast,10,2012-10-26 03:29:00
10:53 PM,45.0,37.9,76,30.22,10.0,NNE,8.1,-,N/A,,Overcast,20,2012-10-26 03:53:00
11:53 PM,45.0,36.0,71,30.24,10.0,NNE,10.4,19.6,N/A,,Overcast,20,2012-10-26 04:53:00